Location: Peebles
(55.6412°N, 3.1714°W)
Time: 01:41:22
(UTC+01:00)

deb r/b Ablestar - Pass Details

Date: 04 July 2022
Orbit: 859 x 1154 km, 67.2° (Epoch: 13 August)

Event Time Altitude Azimuth Distance (km) Brightness Sun altitude
Rises 00:00:30 0° 311° (NW) 3,986 ? -9.8°
Reaches altitude 10° 00:03:16 10° 316° (NW) 3,045 ? -9.9°
Maximum altitude 00:10:27 55° 34° (NE) 1,373 ? -10.2°
Drops below altitude 10° 00:17:35 10° 111° (ESE) 3,033 ? -10.4°
Sets 00:20:20 0° 116° (ESE) 3,969 ? -10.5°
